Regional Weather Roundup
Issued by NWS Albany, NY

Home | Current Version | Previous Version | Text Only | Print | Product List | Glossary On
Versions: 1 2 3 4 5 6 7 8 9 10 11 12 13 14 15 16 17 18 19 20 21 22 23 24 25 26 27
000
ASUS41 KALY 260710
RWRALY

NEW YORK STATE HOURLY WEATHER ROUNDUP
NATIONAL WEATHER SERVICE ALBANY NY
300 AM EDT WED APR 26 2017

NOTE: "FAIR" INDICATES FEW OR NO CLOUDS BELOW 12,000 FEET WITH NO
SIGNIFICANT WEATHER AND/OR NO OBSTRUCTIONS TO VISIBILITY.

NYZ032-033-038>043-046>054-057>066-NYZ062>081-082-084-260800-
EAST


CITY           SKY/WX    TMP DP  RH WIND       PRES   REMARKS
ALBANY         DRIZZLE   50  48  93 N6        29.92F
GLENS FALLS    CLOUDY    49  46  90 N7        29.94F
POUGHKEEPSIE   CLOUDY    50  49  96 NW8       29.83F
NEWBURGH       CLOUDY    52  52 100 NE6       29.85F FOG
MONTGOMERY     LGT RAIN  51  49  92 NE10      29.83F FOG
WHITE PLAINS   DRIZZLE   55  53  93 NE9       29.79S FOG
ISLIP          CLOUDY    57  57 100 NE10      29.77F
NEW YORK CITY  CLOUDY    54  51  90 NE21      29.78F FOG
CENTRAL PARK   CLOUDY    54  54 100 E9G22     29.81F FOG
$$

NYZ005>009-017-018-044>046-055-056-260800-
CENTRAL


CITY           SKY/WX    TMP DP  RH WIND       PRES   REMARKS
FULTON         CLOUDY    53  48  83 E6        29.86F
SYRACUSE       CLOUDY    51  49  92 NE7       29.84F
ROME           CLOUDY    52  49  89 E8        29.88F
ELMIRA         CLOUDY    56  50  80 NE3       29.81F
BINGHAMTON     CLOUDY    49  49 100 E6        29.81F
MONTICELLO     CLOUDY    48  48 100 E8        29.85S
$$

NYZ026>034-041>043-087-260800-
NORTH


CITY           SKY/WX    TMP DP  RH WIND       PRES   REMARKS
WATERTOWN      CLOUDY    53  50  89 NE7       29.87S
FORT DRUM      NOT AVBL
MASSENA        CLOUDY    49  48  97 NE7       29.93F
SARANAC LAKE   CLOUDY    48  48 100 NE7       29.90F
PLATTSBURGH    LGT RAIN  47  45  93 CALM      29.96F
$$

NYZ001>004-010>016-019>021-085-260800-
WEST


CITY           SKY/WX    TMP DP  RH WIND       PRES   REMARKS
NIAGARA FALLS  MOCLDY    56  51  84 E6        29.80F
BUFFALO        CLOUDY    56  52  86 NE5       29.80F
DUNKIRK        CLOUDY    56  52  86 NE5       29.80F
JAMESTOWN      CLOUDY    54  48  82 SE7       29.80F
WELLSVILLE     CLOUDY    52  50  93 SE5       29.82F
ROCHESTER      CLOUDY    55  49  80 E9        29.84S
PENN YAN       CLOUDY    55  50  83 CALM      29.83F
$$

             KEY
       WCI = WIND CHILL INDEX
       VSB = VISIBILITY
       HX  = HEAT INDEX
$$




USA.gov is the U.S. government's official web portal to all federal, state and local government web resources and services.